Regional Weather Roundup
Issued by NWS

Home | Current Version | Previous Version | Text Only | Print | Product List | Glossary Off
Versions: 1 2 3 4 5 6 7 8 9 10 11 12 13 14 15 16 17 18 19 20 21 22 23 24 25 26 27 28 29 30 31 32 33 34 35 36 37 38 39 40 41 42 43 44 45 46 47 48 49 50

000
ASUS43 KOAX 241510
RWRNE

WEATHER ROUNDUP FOR NEBRASKA
NATIONAL WEATHER SERVICE OMAHA NE
1000 AM CDT SAT SEP 24 2016

NOTES: SATELLITE DATA IS BEING USED TO AUGMENT CLOUD COVER ABOVE
       12000 FEET.
       "FAIR" INDICATES FEW OR NO CLOUDS BELOW 12,000 FEET WITH NO
       SIGNIFICANT WEATHER AND/OR OBSTRUCTIONS TO VISIBILITY.

  * THESE STATIONS DO NOT REPORT WEATHER SUCH AS RAIN...SNOW OR FOG.

NEZ001>004-019>022-054>056-241600-
NEBRASKA PANHANDLE

CITY           SKY/WX    TMP DP  RH WIND       PRES   REMARKS
SCOTTSBLUFF    SUNNY     51  42  71 SW3       29.95R
ALLIANCE       SUNNY     50  42  74 W6        29.94R
CHADRON        SUNNY     54  43  66 SW15      29.90R
KIMBALL        SUNNY     51  41  70 W9        29.98S
SIDNEY         CLOUDY    50  43  77 SW10      29.99R
$$

NEZ057>060-069>072-079>082-241600-
SOUTHWEST NEBRASKA

CITY           SKY/WX    TMP DP  RH WIND       PRES   REMARKS
NORTH PLATTE   PTSUNNY   59  46  62 W9        29.96R
IMPERIAL       MOSUNNY   55  42  61 NW8       29.99R
LEXINGTON      CLOUDY    59  49  69 NW9       29.93R
MCCOOK         MOSUNNY   56  47  71 W8        29.96S
OGALLALA       SUNNY     59  45  59 NW5       29.98R
$$

NEZ005>010-023>029-035>040-094-241600-
NORTH CENTRAL NEBRASKA

CITY           SKY/WX    TMP DP  RH WIND       PRES   REMARKS
VALENTINE      MOSUNNY   61  44  53 W13       29.88R
AINSWORTH      CLOUDY    60  47  62 W6        29.90R
BROKEN BOW     CLOUDY    61  50  67 NW8       29.91R
O`NEILL        PTSUNNY   72  66  82 S17       29.89R
ORD            CLOUDY    71  65  81 S12       29.87R
THEDFORD       MOSUNNY   58  48  69 W9        29.94R
$$

NEZ041-046>049-061>064-073>077-083>087-241600-
SOUTH CENTRAL NEBRASKA

CITY           SKY/WX    TMP DP  RH WIND       PRES   REMARKS
GRAND ISLAND   CLOUDY    69  68  96 S13       29.91R
AURORA         CLOUDY    70  69  98 S9        29.91R
HASTINGS       LGT RAIN  69  67  93 S8        29.92R FOG
HEBRON         PTSUNNY   76  68  76 S15G23    29.92S
HOLDREGE       CLOUDY    64  55  74 W7        29.92S
KEARNEY *      PTSUNNY   66  55  68 SW9       29.90R
YORK           PTSUNNY   73  68  83 S14G23    29.92R
$$

NEZ011>018-030>034-042>045-241600-
NORTHEAST NEBRASKA

CITY           SKY/WX    TMP DP  RH WIND       PRES   REMARKS
NORFOLK        CLOUDY    70  67  90 SE13      29.90S
ALBION         CLOUDY    70  67  89 SE8       29.89F
BLAIR          CLOUDY    78  67  70 S13       29.96S
FREMONT        CLOUDY    77  66  69 S9G18     29.95R
TEKAMAH        SUNNY     78  66  66 SE14      29.95S
WAYNE          LGT RAIN  71  68  89 S18G26    29.93R
$$

NEZ050>053-065>068-078-088>093-241600-
SOUTHEAST NEBRASKA

CITY           SKY/WX    TMP DP  RH WIND       PRES   REMARKS
LINCOLN        PTSUNNY   80  69  69 S15       29.93F
OMAHA EPPLEY   CLOUDY    77  67  71 SE14      29.96S
BEATRICE       RAIN      73  71  92 S12       29.95R
FALLS CITY     CLOUDY    78  69  73 S9G21     29.98F
NEBRASKA CITY  CLOUDY    75  62  62 S10       29.97F
PLATTSMOUTH    CLOUDY    77  64  65 SE13      29.97F
$$

NEZ044-045-051>053-067-241600-
OMAHA AREA

CITY           SKY/WX    TMP DP  RH WIND       PRES   REMARKS
OMAHA EPPLEY   CLOUDY    77  67  71 SE14      29.96S
BLAIR          CLOUDY    78  67  70 S13       29.96S
FREMONT        CLOUDY    77  66  69 S9G18     29.95R
MILLARD        MOSUNNY   78  69  72 SE10G17   29.95F
OFFUTT AFB     CLOUDY    78  69  74 SE16      29.95F
PLATTSMOUTH    CLOUDY    77  64  65 SE13      29.97F
WAHOO          PTSUNNY   76  67  73 S10       29.94S
$$




USA.gov is the U.S. government's official web portal to all federal, state and local government web resources and services.